TimePDT,TemperatureF,Dew PointF,Humidity,Sea Level PressureIn,VisibilityMPH,Wind Direction,Wind SpeedMPH,Gust SpeedMPH,PrecipitationIn,Events,Conditions,WindDirDegrees,DateUTC
12:58 AM,60.8,45.1,56,29.85,10.0,SSW,2.3,-,N/A,,Clear,210,2013-07-06 07:58:00
1:58 AM,57.6,44.2,61,29.87,10.0,Calm,Calm,-,N/A,,Clear,0,2013-07-06 08:58:00
2:58 AM,55.0,45.9,71,29.88,10.0,SE,3.5,-,N/A,,Partly Cloudy,140,2013-07-06 09:58:00
3:58 AM,57.0,44.4,63,29.87,10.0,South,3.5,-,N/A,,Partly Cloudy,180,2013-07-06 10:58:00
4:58 AM,55.2,45.1,69,29.89,10.0,SSE,2.3,-,N/A,,Clear,150,2013-07-06 11:58:00
5:58 AM,54.9,46.0,72,29.90,10.0,East,3.5,-,N/A,,Clear,80,2013-07-06 12:58:00
6:58 AM,59.4,45.9,61,29.90,10.0,ENE,3.5,-,N/A,,Mostly Cloudy,60,2013-07-06 13:58:00
7:58 AM,61.5,47.5,60,29.91,10.0,Variable,1.2,-,N/A,,Clear,0,2013-07-06 14:58:00
8:58 AM,64.8,49.5,58,29.92,10.0,Variable,2.3,-,N/A,,Clear,0,2013-07-06 15:58:00
9:58 AM,67.8,50.5,54,29.91,10.0,Variable,2.3,-,N/A,,Clear,0,2013-07-06 16:58:00
10:58 AM,71.1,49.6,47,29.91,10.0,Calm,Calm,-,N/A,,Clear,0,2013-07-06 17:58:00
11:58 AM,74.3,50.4,43,29.90,10.0,Variable,1.2,-,N/A,,Clear,0,2013-07-06 18:58:00
12:58 PM,76.6,50.0,39,29.89,10.0,Variable,3.5,-,N/A,,Clear,0,2013-07-06 19:58:00
1:58 PM,78.1,50.5,38,29.88,10.0,Variable,4.6,-,N/A,,Clear,0,2013-07-06 20:58:00
2:58 PM,79.0,49.1,35,29.87,10.0,NE,4.6,-,N/A,,Scattered Clouds,50,2013-07-06 21:58:00
3:58 PM,79.5,47.7,33,29.86,10.0,Variable,3.5,-,N/A,,Clear,0,2013-07-06 22:58:00
4:58 PM,80.8,44.2,27,29.84,10.0,Variable,4.6,-,N/A,,Clear,0,2013-07-06 23:58:00
5:58 PM,80.2,47.3,31,29.83,10.0,West,8.1,-,N/A,,Mostly Cloudy,280,2013-07-07 00:58:00
6:58 PM,79.3,47.1,32,29.82,10.0,North,6.9,-,N/A,,Clear,360,2013-07-07 01:58:00
7:58 PM,75.2,50.4,42,29.82,10.0,North,6.9,-,N/A,,Clear,350,2013-07-07 02:58:00
8:58 PM,71.4,47.1,42,29.83,10.0,North,5.8,-,N/A,,Clear,350,2013-07-07 03:58:00
9:58 PM,69.1,45.7,43,29.84,10.0,NNW,5.8,-,N/A,,Clear,330,2013-07-07 04:58:00
10:58 PM,65.1,45.9,50,29.84,10.0,NNW,6.9,-,N/A,,Clear,340,2013-07-07 05:58:00
11:58 PM,60.1,49.5,68,29.85,10.0,ENE,2.3,-,N/A,,Clear,60,2013-07-07 06:58:00